Valley City, ND

6:00 AM CDT on October 19, 2019 (GMT -0500)
Valley City

Weather History for KBAC - August, 2019

Change the Weather History Date:

Saturday, August 24, 2019

  Actual Average (KJMS) Record (KJMS)
Temperature  
Mean Temperature 69 °F -  
Max Temperature 78 °F 83 °F 105 °F (1925)
Min Temperature 60 °F 56 °F 33 °F (1934)
Cooling Degree Days 4    
Growing Degree Days 19 (Base 50)    
Moisture  
Dew Point 64 °F    
Average Humidity 87    
Maximum Humidity 100    
Minimum Humidity 65    
Precipitation  
Precipitation 0.00 in - - ()
Sea Level Pressure  
Sea Level Pressure 30.02 in    
Wind  
Wind Speed 12 mph ()    
Max Wind Speed 23 mph    
Max Gust Speed 30 mph    
Visibility 10.0 miles    
Events      
Averages and records for this station are not official NWS values.
T = Trace of Precipitation, MM = Missing Value Source: Averaged Metar Reports

Daily Weather History Graph

Daily Weather History Graph

Search for Another Location

Airport or City:

Astronomy

Aug. 24, 2019 Rise Set
Actual Time 6:40 AM CDT 8:27 PM CDT
Civil Twilight 6:08 AM CDT 8:59 PM CDT
Nautical Twilight 5:29 AM CDT 9:38 PM CDT
Astronomical Twilight 4:45 AM CDT 10:21 PM CDT
Moon 12:27 AM CDT (8/24) 3:55 PM CDT (8/24)
Length of Visible Light 14h 50m
Length of Day
13h 46m
Last Quarter, 39% of the Moon is Illuminated
Aug 24
Last Quarter
Aug 30
New
Sep 5
First Quarter
Sep 13
Full
Sep 21
Last Quarter

Hourly Weather History & Observations

Time (CDT) Temp. Dew Point Humidity Pressure Visibility Wind Dir Wind Speed Gust Speed Precip Events Conditions
12:15 AM 64.4 °F 60.8 °F 88% 30.10 in 10.0 mi SSE 12.7 mph - N/A   Clear
12:35 AM 62.6 °F 60.8 °F 94% 30.10 in 10.0 mi SSE 12.7 mph - N/A   Clear
12:55 AM 62.6 °F 60.8 °F 94% 30.09 in 10.0 mi SSE 12.7 mph - N/A   Clear
1:15 AM 62.6 °F 62.6 °F 100% 30.10 in 10.0 mi SSE 11.5 mph - N/A   Clear
1:35 AM 62.6 °F 62.6 °F 100% 30.09 in 10.0 mi SSE 10.4 mph - N/A   Clear
1:55 AM 62.6 °F 62.6 °F 100% 30.09 in 10.0 mi SSE 10.4 mph - N/A   Clear
2:15 AM 62.6 °F 62.6 °F 100% 30.09 in 10.0 mi SSE 12.7 mph - N/A   Clear
2:35 AM - - N/A% 30.09 in 10.0 mi SSE 11.5 mph 17.3 mph N/A   Clear
2:55 AM 60.8 °F 60.8 °F 100% 30.09 in 10.0 mi SSE 9.2 mph - N/A   Clear
3:35 AM 60.8 °F 60.8 °F 100% 30.07 in 10.0 mi SSE 9.2 mph - N/A   Clear
3:55 AM 60.8 °F 60.8 °F 100% 30.08 in 10.0 mi SSE 9.2 mph - N/A   Clear
4:15 AM 60.8 °F 60.8 °F 100% 30.07 in 10.0 mi SSE 9.2 mph - N/A   Clear
4:35 AM 60.8 °F 60.8 °F 100% 30.07 in 10.0 mi SSE 10.4 mph - N/A   Clear
4:55 AM 60.8 °F 60.8 °F 100% 30.06 in 10.0 mi SSE 9.2 mph - N/A   Clear
5:15 AM 60.8 °F 60.8 °F 100% 30.06 in 10.0 mi SSE 10.4 mph - N/A   Clear
5:35 AM 60.8 °F 60.8 °F 100% 30.06 in 10.0 mi SSE 11.5 mph - N/A   Clear
5:55 AM 60.8 °F 60.8 °F 100% 30.07 in 10.0 mi South 10.4 mph - N/A   Clear
6:15 AM 60.8 °F 60.8 °F 100% 30.07 in 10.0 mi SSE 10.4 mph - N/A   Clear
6:35 AM 60.8 °F 60.8 °F 100% 30.06 in 10.0 mi SSE 10.4 mph - N/A   Clear
6:55 AM 60.8 °F 60.8 °F 100% 30.06 in 10.0 mi SSE 8.1 mph 15.0 mph N/A   Clear
7:15 AM 60.8 °F 60.8 °F 100% 30.05 in 10.0 mi SSE 10.4 mph - N/A   Clear
7:35 AM 60.8 °F 60.8 °F 100% 30.06 in 10.0 mi SSE 8.1 mph - N/A   Clear
7:55 AM 62.6 °F 62.6 °F 100% 30.06 in 10.0 mi SSE 9.2 mph - N/A   Clear
8:15 AM 62.6 °F 62.6 °F 100% 30.06 in 10.0 mi SSE 10.4 mph - N/A   Clear
8:35 AM 64.4 °F 64.4 °F 100% 30.06 in 10.0 mi South 10.4 mph - N/A   Partly Cloudy
8:55 AM 66.2 °F 66.2 °F 100% 30.05 in 10.0 mi South 15.0 mph 20.7 mph N/A   Partly Cloudy
9:15 AM 66.2 °F 66.2 °F 100% 30.04 in 10.0 mi SSE 12.7 mph 19.6 mph N/A   Partly Cloudy
9:35 AM 68.0 °F 66.2 °F 94% 30.04 in 10.0 mi South 12.7 mph 18.4 mph N/A   Clear
9:55 AM 69.8 °F 66.2 °F 88% 30.04 in 10.0 mi SSE 12.7 mph - N/A   Partly Cloudy
10:15 AM 69.8 °F 66.2 °F 88% 30.04 in 10.0 mi South 12.7 mph 19.6 mph N/A   Partly Cloudy
10:35 AM 71.6 °F 66.2 °F 83% 30.03 in 10.0 mi SSE 15.0 mph 21.9 mph N/A   Clear
10:55 AM 73.4 °F 68.0 °F 83% 30.03 in 9.0 mi SSE 15.0 mph 21.9 mph N/A   Clear
11:15 AM 75.2 °F 66.2 °F 73% 30.02 in 10.0 mi South 17.3 mph 26.5 mph N/A   Partly Cloudy
11:35 AM 75.2 °F 68.0 °F 78% 30.02 in 10.0 mi South 16.1 mph 26.5 mph N/A   Scattered Clouds
11:55 AM 75.2 °F 66.2 °F 73% 30.02 in 10.0 mi South 18.4 mph 27.6 mph N/A   Mostly Cloudy
12:15 PM 75.2 °F 66.2 °F 73% 30.00 in 10.0 mi SSE 20.7 mph 29.9 mph N/A   Mostly Cloudy
12:35 PM 75.2 °F 68.0 °F 78% 30.00 in 10.0 mi SSE 15.0 mph 25.3 mph N/A   Mostly Cloudy
12:55 PM 77.0 °F 68.0 °F 74% 29.99 in 10.0 mi SSE 18.4 mph 26.5 mph N/A   Mostly Cloudy
1:15 PM 75.2 °F 68.0 °F 78% 29.99 in 10.0 mi SSE 11.5 mph 23.0 mph N/A   Overcast
1:35 PM 75.2 °F 68.0 °F 78% 29.99 in 10.0 mi SSE 17.3 mph 24.2 mph N/A   Overcast
1:55 PM 77.0 °F 68.0 °F 74% 29.99 in 10.0 mi SSE 18.4 mph - N/A   Overcast
2:15 PM 78.8 °F 68.0 °F 69% 29.99 in 10.0 mi SSE 16.1 mph 25.3 mph N/A   Mostly Cloudy
2:35 PM 77.0 °F 68.0 °F 74% 29.99 in 10.0 mi SSE 20.7 mph 28.8 mph N/A   Mostly Cloudy
2:55 PM 77.0 °F 68.0 °F 74% 29.99 in 10.0 mi SSE 23.0 mph - N/A   Overcast
3:15 PM 77.0 °F 68.0 °F 74% 29.99 in 10.0 mi SSE 17.3 mph 23.0 mph N/A   Mostly Cloudy
3:35 PM 77.0 °F 68.0 °F 74% 29.98 in 10.0 mi SSE 17.3 mph 24.2 mph N/A   Overcast
3:55 PM 77.0 °F 68.0 °F 74% 29.98 in 10.0 mi SSE 17.3 mph 27.6 mph N/A   Overcast
4:15 PM 75.2 °F 68.0 °F 78% 29.98 in 10.0 mi SSE 15.0 mph 24.2 mph N/A   Overcast
4:35 PM 75.2 °F 68.0 °F 78% 29.97 in 10.0 mi SE 16.1 mph 28.8 mph N/A   Overcast
4:55 PM 75.2 °F 68.0 °F 78% 29.97 in 10.0 mi SSE 19.6 mph - N/A   Overcast
5:15 PM 75.2 °F 68.0 °F 78% 29.96 in 10.0 mi SSE 15.0 mph 25.3 mph N/A   Overcast
5:35 PM 77.0 °F 68.0 °F 74% 29.96 in 10.0 mi SSE 16.1 mph - N/A   Overcast
5:55 PM 75.2 °F 66.2 °F 73% 29.96 in 10.0 mi SSE 19.6 mph 27.6 mph N/A   Overcast
6:15 PM 77.0 °F 66.2 °F 69% 29.96 in 10.0 mi SSE 15.0 mph 23.0 mph N/A   Overcast
6:35 PM 77.0 °F 64.4 °F 65% 29.96 in 10.0 mi South 18.4 mph 25.3 mph N/A   Mostly Cloudy
6:55 PM 75.2 °F 64.4 °F 69% 29.96 in 10.0 mi SSE 18.4 mph - N/A   Partly Cloudy
7:15 PM 75.2 °F 64.4 °F 69% 29.96 in 10.0 mi SSE 18.4 mph 29.9 mph N/A   Mostly Cloudy
7:35 PM 73.4 °F 66.2 °F 78% 29.96 in 10.0 mi SSE 17.3 mph 26.5 mph N/A   Overcast
7:55 PM 71.6 °F 64.4 °F 78% 29.96 in 10.0 mi SSE 13.8 mph 24.2 mph N/A   Overcast
8:15 PM 71.6 °F 64.4 °F 78% 29.95 in 10.0 mi SSE 13.8 mph 23.0 mph N/A   Overcast
8:35 PM 71.6 °F 64.4 °F 78% 29.95 in 10.0 mi SSE 18.4 mph - N/A   Overcast
8:55 PM 69.8 °F 62.6 °F 78% 29.95 in 10.0 mi SSE 18.4 mph - N/A   Overcast
9:15 PM 69.8 °F 62.6 °F 78% 29.96 in 10.0 mi SSE 15.0 mph 20.7 mph N/A   Scattered Clouds
9:55 PM 68.0 °F 64.4 °F 88% 29.95 in 10.0 mi SSE 15.0 mph - N/A   Clear
10:15 PM 68.0 °F 64.4 °F 88% 29.95 in 10.0 mi SSE 13.8 mph 19.6 mph N/A   Clear
10:35 PM 66.2 °F 64.4 °F 94% 29.95 in 10.0 mi SSE 12.7 mph 19.6 mph N/A   Clear
10:55 PM 66.2 °F 64.4 °F 94% 29.95 in 10.0 mi SSE 12.7 mph 20.7 mph N/A   Clear
11:15 PM 66.2 °F 62.6 °F 88% 29.94 in 10.0 mi SSE 15.0 mph 20.7 mph N/A   Clear
11:35 PM 64.4 °F 62.6 °F 94% 29.94 in 10.0 mi SSE 11.5 mph 20.7 mph N/A   Clear
11:55 PM 64.4 °F 62.6 °F 94% 29.94 in 10.0 mi SSE 15.0 mph 20.7 mph N/A   Clear